Miscellaneous Local Product
Issued by NWS Hastings, NE

Home | Current Version | Previous Version | Text Only | Print | Product List | Glossary Off
Versions: 1 2 3 4 5 6 7 8 9 10 11 12 13 14 15 16 17 18 19 20 21 22 23 24 25 26 27 28 29 30 31 32 33 34 35 36 37 38 39 40 41 42 43 44 45 46 47 48 49 50

401
AXUS43 KGID 240402
MISGRI

GID CWA HOURLY WEATHER ROUNDUP
NATIONAL WEATHER SERVICE HASTINGS NE
1100 PM CDT MON APR 23 2018

NOTE: "FAIR" INDICATES FEW OR NO CLOUDS BELOW 12,000 FEET WITH NO
SIGNIFICANT WEATHER AND/OR OBSTRUCTIONS TO VISIBILITY.

...SOUTH CENTRAL NEBRASKA...

CITY           SKY/WX    TMP DP  RH WIND       PRES   REMARKS
GRAND ISLAND   CLOUDY    57  41  55 SE6       30.10R
KEARNEY        PTCLDY    54  41  61 CALM      30.11R
HASTINGS       PTCLDY    51  41  68 E5        30.09S
ORD            CLEAR     44  36  73 CALM      30.10R
YORK             N/A     54  30  40 CALM      30.10R
AURORA         CLOUDY    54  32  43 SE5       30.09S
LEXINGTON      CLEAR     51  39  63 CALM      30.09R
HOLDREGE       CLEAR     49  39  69 SE3       30.09R
HEBRON         CLOUDY    49  39  68 CALM      30.08S

...NEBRASKA PANHANDLE...

CITY           SKY/WX    TMP DP  RH WIND       PRES   REMARKS
CHADRON        MOCLDY    38  34  85 W20G30    30.23R WCI  28
ALLIANCE       LGT RAIN  41  39  93 NW14      30.21R
SCOTTSBLUFF    CLOUDY    41  41 100 NW22G30   30.26R
SIDNEY         LGT RAIN  43  41  93 N18G29    30.19R

...WESTERN AND NORTH CENTRAL NEBRASKA...

CITY           SKY/WX    TMP DP  RH WIND       PRES   REMARKS
VALENTINE      MOCLDY    60  40  47 SE13      30.07S
AINSWORTH      CLOUDY    55  42  60 SE8       30.10S
ONEILL         CLOUDY    59  39  46 SE5       30.11S
BROKEN BOW     CLOUDY    48  41  76 CALM      30.11R
IMPERIAL       CLOUDY    51  42  71 E5        30.09R
NORTH PLATTE   CLEAR     47  39  74 SE3       30.10R
MCCOOK         CLEAR     52  40  63 SE8       30.07R

...EASTERN NEBRASKA...

CITY           SKY/WX    TMP DP  RH WIND       PRES   REMARKS
NORFOLK        MOCLDY    50  35  56 NE3       30.10R
SO SIOUX CITY  CLOUDY    56  41  57 E12       30.11R
TEKAMAH        PTCLDY    48  34  58 N8        30.10R
COLUMBUS       PTCLDY    52  34  50 CALM      30.10R
ALBION         CLOUDY    57  42  57 CALM      30.10S
OMAHA EPPLEY   CLEAR     56  31  38 CALM      30.08R
MILLARD        CLEAR     56  40  56 CALM      30.08S
LINCOLN        CLOUDY    48  32  53 N5        30.10R
NEBRASKA CITY  CLEAR     60  31  33 CALM      30.08S
BEATRICE       CLOUDY    54  32  43 CALM      30.08S
FALLS CITY     CLEAR     56  30  37 NE5       30.06S

...NORTHERN KANSAS...

CITY           SKY/WX    TMP DP  RH WIND       PRES   REMARKS
GOODLAND       CLEAR     47  40  76 SE9       30.05R
HILL CITY      CLEAR     54  42  64 SE6       30.08R
NORTON         CLEAR     54  39  58 E5        30.08R
PHILLIPSBURG   CLEAR     54  39  58 E3        30.08S
BELOIT         CLEAR     46  39  76 CALM      30.07S
HAYS           CLEAR     53  42  66 SE6       30.08S
RUSSELL        CLEAR     57  42  57 S5        30.07R
CONCORDIA      CLOUDY    58  33  39 S3        30.07S
SALINA         CLEAR     57  45  64 W3        30.07R
TOPEKA         CLEAR     56  37  49 CALM      30.04S



USA.gov is the U.S. government's official web portal to all federal, state and local government web resources and services.